Portada
METAR-TAF:

METAR-TAF

Aeropuertos :

Sioux Gateway Airport (Col. Bud Day Field)

Sioux City, Iowa, Estados Unidos

latitud: 42-24-09N, longitud: 096-23-04W, altitud: 335 m

Observación

El informe se hizo hace 25 minutos, a las 23:52 UTC
Viento 10 kt del noroeste
Temperatura 13°C
Humedad 35%
Presión 1018 hPa
Visibilidad: 16.1 km
Cielo despejado

METAR: KSUX 292352Z 32010KT 10SM CLR 13/M02 A3007 RMK AO2 SLP189 T01281017 10139 20106 53020

Hora: 19:17 (00:17 UTC)

Pronóstico

El informe se hizo hace 57 minutos, a las 23:20 UTC
Pronóstico válido del 30 a las 00 UTC al 30 a las 24 UTC
Viento 5 kt con dirección variable
Visibilidad: 10 km
Cielo despejado
A partir de las 30 a las 1500 UTC
Viento 7 kt del este-sureste
Visibilidad: 10 km
Cielo despejado

TAF: KSUX 292320Z 3000/3024 VRB05KT P6SM SKC FM301500 12007KT P6SM SKC

Observaciones y pronósticos meteorológicos de más de 4000 aeropuertos (mensajes METAR y TAF).

Los puntos amarillos y rojos representan las estaciones disponibles.

Ponga el ratón en el punto deseado para ver el nombre de la estación.

Haga clic para ver las observaciones y los pronósticos meteorológicos.

Para cambiar el mapa : haga clic en los botones verdes con una cruz de color negro para hacer un zoom, en el botón verde con un guión para alejar o en las flechas verdes para mapas adyacentes.


METAR-TAF: